Location: Doschendorf
(50.0069°N, 11.0602°E)
Time: 14:09:36
(UTC+00:00)

Cosmos 158 Rocket - Pass Details

Date: 17 November 2019
Orbit: 699 x 793 km, 74.0° (Epoch: 07 December)

Event Time Altitude Azimuth Distance (km) Brightness Sun altitude
Rises 17:23:10 0° 179° (S) 3,256 7.4 -18.0°
Reaches altitude 10° 17:25:41 10° 172° (S) 2,322 6.5 -18.4°
Maximum altitude 17:30:35 40° 104° (ESE) 1,118 4.4 -19.2°
Enters shadow 17:31:19 38° 84° (E) 1,158 4.4 -19.3°
